GBFA CNC3-CYGK

Flight info

Callsign GBFA
Flight time 1h 5m
Altitude 5000
Route VFR
Aircraft PA24/L-SDGRY/S

Departure

Time 2026-05-08 16:07
Airport Brampton-Caledon Airport (CNC3)

Arrival

Time 2026-05-08 17:12
Airport Kingston Norman Rogers Airport (CYGK)
Time Latitude Longitude Altitude Speed Heading
2026-05-08 15:53 43.75966 -79.87835 929 ft 0 kts 45°
2026-05-08 15:55 43.75993 -79.87798 931 ft 4 kts 43°
2026-05-08 15:55 43.76033 -79.87744 930 ft 10 kts 46°
2026-05-08 15:56 43.76069 -79.87691 933 ft 5 kts 46°
2026-05-08 15:56 43.76091 -79.87658 931 ft 5 kts 46°
2026-05-08 15:56 43.76109 -79.87634 931 ft 3 kts 40°
2026-05-08 15:56 43.76111 -79.87614 931 ft 2 kts 178°
2026-05-08 15:57 43.76107 -79.87614 931 ft 0 kts 188°
2026-05-08 16:02 43.76099 -79.87616 931 ft 4 kts 187°
2026-05-08 16:02 43.76072 -79.87592 930 ft 8 kts 134°
2026-05-08 16:03 43.76021 -79.87524 928 ft 10 kts 135°
2026-05-08 16:03 43.75984 -79.87474 927 ft 9 kts 137°
2026-05-08 16:03 43.75945 -79.87420 926 ft 6 kts 126°
2026-05-08 16:03 43.75958 -79.87340 924 ft 14 kts 70°
2026-05-08 16:04 43.75991 -79.87213 923 ft 10 kts 71°
2026-05-08 16:04 43.76008 -79.87147 922 ft 5 kts 71°
2026-05-08 16:04 43.76019 -79.87104 922 ft 3 kts 69°
2026-05-08 16:04 43.76030 -79.87064 919 ft 4 kts 69°
2026-05-08 16:05 43.76034 -79.87051 919 ft 0 kts 69°
2026-05-08 16:06 43.76032 -79.87017 918 ft 5 kts 145°
2026-05-08 16:06 43.76007 -79.87017 917 ft 3 kts 255°
2026-05-08 16:07 43.75972 -79.87159 919 ft 46 kts 250°
2026-05-08 16:07 43.75808 -79.87797 1014 ft 80 kts 249°
2026-05-08 16:07 43.75588 -79.88566 1282 ft 86 kts 246°
2026-05-08 16:07 43.75359 -79.89323 1606 ft 86 kts 245°
2026-05-08 16:08 43.75099 -79.90072 1905 ft 88 kts 240°
2026-05-08 16:08 43.74593 -79.90552 2118 ft 100 kts 178°
2026-05-08 16:08 43.73999 -79.90067 2207 ft 106 kts 131°
2026-05-08 16:08 43.73519 -79.89287 2173 ft 107 kts 130°
2026-05-08 16:09 43.73049 -79.88506 2155 ft 105 kts 130°
2026-05-08 16:09 43.72740 -79.87978 2151 ft 103 kts 128°
2026-05-08 16:09 43.72149 -79.86960 2202 ft 102 kts 131°
2026-05-08 16:09 43.71706 -79.86217 2453 ft 104 kts 128°
2026-05-08 16:10 43.71238 -79.85367 2532 ft 120 kts 128°
2026-05-08 16:10 43.70667 -79.84408 2535 ft 136 kts 136°
2026-05-08 16:10 43.69970 -79.83486 2545 ft 140 kts 137°
2026-05-08 16:10 43.69261 -79.82546 2581 ft 146 kts 138°
2026-05-08 16:11 43.68494 -79.81580 2554 ft 150 kts 139°
2026-05-08 16:11 43.67709 -79.80651 2579 ft 148 kts 141°
2026-05-08 16:11 43.66919 -79.79714 2563 ft 151 kts 140°
2026-05-08 16:11 43.66146 -79.78746 2578 ft 150 kts 138°
2026-05-08 16:12 43.65391 -79.77730 2551 ft 152 kts 136°
2026-05-08 16:12 43.64665 -79.76680 2551 ft 152 kts 134°
2026-05-08 16:12 43.63947 -79.75608 2459 ft 152 kts 133°
2026-05-08 16:12 43.63246 -79.74526 2301 ft 149 kts 131°
2026-05-08 16:13 43.62581 -79.73446 2126 ft 147 kts 131°
2026-05-08 16:13 43.61913 -79.72364 1990 ft 147 kts 130°
2026-05-08 16:13 43.61269 -79.71280 2027 ft 147 kts 128°
2026-05-08 16:13 43.60638 -79.70169 2047 ft 146 kts 128°
2026-05-08 16:14 43.60022 -79.69042 2045 ft 148 kts 126°
2026-05-08 16:14 43.59426 -79.67891 2064 ft 147 kts 125°
2026-05-08 16:14 43.58857 -79.66716 2060 ft 148 kts 122°
2026-05-08 16:14 43.58328 -79.65498 2061 ft 148 kts 120°
2026-05-08 16:15 43.57808 -79.64260 2027 ft 150 kts 120°
2026-05-08 16:15 43.57300 -79.63010 1997 ft 150 kts 119°
2026-05-08 16:15 43.56835 -79.61773 2037 ft 147 kts 117°
2026-05-08 16:15 43.56406 -79.60496 2040 ft 147 kts 114°
2026-05-08 16:16 43.55985 -79.59220 2052 ft 146 kts 117°
2026-05-08 16:16 43.55498 -79.57985 2050 ft 147 kts 121°
2026-05-08 16:16 43.55242 -79.56635 1905 ft 156 kts 80°
2026-05-08 16:16 43.55866 -79.55460 1929 ft 150 kts 45°
2026-05-08 16:17 43.56588 -79.54451 1993 ft 147 kts 47°
2026-05-08 16:17 43.57060 -79.53767 2033 ft 146 kts 47°
2026-05-08 16:17 43.57973 -79.52358 2031 ft 152 kts 48°
2026-05-08 16:17 43.58680 -79.51270 2030 ft 153 kts 47°
2026-05-08 16:18 43.59403 -79.50180 2027 ft 154 kts 46°
2026-05-08 16:18 43.60147 -79.49130 2047 ft 153 kts 44°
2026-05-08 16:18 43.60936 -79.48143 2042 ft 154 kts 40°
2026-05-08 16:18 43.61735 -79.47167 2053 ft 153 kts 43°
2026-05-08 16:19 43.62222 -79.46463 2054 ft 153 kts 49°
2026-05-08 16:19 43.62829 -79.45269 2037 ft 154 kts 59°
2026-05-08 16:19 43.63352 -79.43977 2016 ft 155 kts 62°
2026-05-08 16:19 43.63839 -79.42665 2077 ft 152 kts 66°
2026-05-08 16:20 43.64271 -79.41318 2043 ft 157 kts 66°
2026-05-08 16:20 43.64705 -79.39922 1993 ft 159 kts 68°
2026-05-08 16:20 43.65135 -79.38525 1989 ft 157 kts 67°
2026-05-08 16:20 43.65585 -79.37149 1972 ft 157 kts 65°
2026-05-08 16:21 43.66083 -79.35806 1945 ft 157 kts 62°
2026-05-08 16:21 43.66620 -79.34527 2086 ft 146 kts 59°
2026-05-08 16:21 43.67151 -79.33372 2303 ft 140 kts 56°
2026-05-08 16:21 43.67710 -79.32288 2562 ft 136 kts 52°
2026-05-08 16:22 43.68281 -79.31250 2786 ft 135 kts 53°
2026-05-08 16:22 43.68826 -79.30189 3014 ft 134 kts 52°
2026-05-08 16:22 43.69378 -79.29141 3209 ft 138 kts 53°
2026-05-08 16:22 43.69918 -79.28037 3411 ft 137 kts 52°
2026-05-08 16:23 43.70421 -79.26918 3628 ft 138 kts 54°
2026-05-08 16:23 43.71025 -79.25890 3850 ft 137 kts 46°
2026-05-08 16:23 43.71653 -79.24902 4063 ft 136 kts 44°
2026-05-08 16:23 43.72312 -79.23984 4295 ft 134 kts 41°
2026-05-08 16:24 43.72970 -79.23055 4488 ft 135 kts 43°
2026-05-08 16:24 43.73602 -79.22087 4666 ft 136 kts 46°
2026-05-08 16:24 43.74221 -79.21108 4868 ft 137 kts 45°
2026-05-08 16:24 43.74840 -79.20105 5077 ft 137 kts 46°
2026-05-08 16:25 43.75464 -79.19102 5273 ft 138 kts 45°
2026-05-08 16:25 43.76082 -79.18081 5456 ft 139 kts 47°
2026-05-08 16:25 43.76706 -79.17002 5510 ft 149 kts 48°
2026-05-08 16:25 43.77365 -79.15842 5537 ft 155 kts 48°
2026-05-08 16:26 43.78043 -79.14662 5586 ft 155 kts 46°
2026-05-08 16:26 43.78780 -79.13558 5569 ft 159 kts 43°
2026-05-08 16:26 43.79532 -79.12442 5603 ft 157 kts 44°
2026-05-08 16:26 43.80266 -79.11258 5451 ft 166 kts 46°
2026-05-08 16:27 43.81013 -79.10052 5453 ft 162 kts 45°
2026-05-08 16:27 43.81743 -79.08880 5483 ft 159 kts 45°
2026-05-08 16:27 43.82449 -79.07724 5516 ft 157 kts 46°
2026-05-08 16:27 43.83143 -79.06547 5514 ft 158 kts 48°
2026-05-08 16:28 43.83797 -79.05318 5526 ft 158 kts 52°
2026-05-08 16:28 43.84372 -79.04021 5531 ft 159 kts 58°
2026-05-08 16:28 43.84857 -79.02637 5518 ft 161 kts 64°
2026-05-08 16:28 43.85269 -79.01191 5516 ft 161 kts 66°
2026-05-08 16:29 43.85627 -78.99722 5518 ft 161 kts 71°
2026-05-08 16:29 43.85935 -78.98223 5511 ft 162 kts 72°
2026-05-08 16:29 43.86230 -78.96711 5494 ft 163 kts 72°
2026-05-08 16:29 43.86542 -78.95216 5522 ft 161 kts 71°
2026-05-08 16:30 43.86830 -78.93737 5611 ft 158 kts 73°
2026-05-08 16:30 43.87079 -78.92242 5616 ft 157 kts 75°
2026-05-08 16:30 43.87310 -78.90752 5621 ft 159 kts 75°
2026-05-08 16:30 43.87601 -78.89268 5594 ft 162 kts 71°
2026-05-08 16:31 43.87923 -78.87735 5473 ft 169 kts 72°
2026-05-08 16:31 43.88238 -78.86165 5416 ft 169 kts 73°
2026-05-08 16:31 43.88537 -78.84601 5398 ft 167 kts 73°
2026-05-08 16:31 43.88834 -78.83048 5441 ft 163 kts 73°
2026-05-08 16:32 43.89116 -78.81576 5506 ft 160 kts 73°
2026-05-08 16:32 43.89393 -78.80076 5510 ft 161 kts 73°
2026-05-08 16:32 43.89666 -78.78575 5525 ft 160 kts 73°
2026-05-08 16:32 43.89937 -78.77073 5472 ft 162 kts 73°
2026-05-08 16:33 43.90203 -78.75551 5497 ft 161 kts 75°
2026-05-08 16:33 43.90446 -78.74048 5540 ft 160 kts 76°
2026-05-08 16:33 43.90664 -78.72524 5532 ft 162 kts 77°
2026-05-08 16:33 43.90852 -78.70990 5577 ft 161 kts 79°
2026-05-08 16:34 43.91043 -78.69462 5599 ft 161 kts 77°
2026-05-08 16:34 43.91297 -78.67942 5598 ft 162 kts 72°
2026-05-08 16:34 43.91585 -78.66419 5573 ft 164 kts 73°
2026-05-08 16:34 43.91864 -78.64881 5554 ft 165 kts 74°
2026-05-08 16:35 43.92127 -78.63333 5553 ft 165 kts 75°
2026-05-08 16:35 43.92374 -78.61783 5554 ft 164 kts 76°
2026-05-08 16:35 43.92576 -78.60219 5536 ft 165 kts 79°
2026-05-08 16:35 43.92715 -78.58639 5532 ft 165 kts 82°
2026-05-08 16:36 43.92856 -78.57058 5543 ft 165 kts 80°
2026-05-08 16:36 43.93035 -78.55488 5542 ft 165 kts 78°
2026-05-08 16:36 43.93238 -78.53924 5547 ft 165 kts 77°
2026-05-08 16:36 43.93433 -78.52354 5529 ft 165 kts 79°
2026-05-08 16:37 43.93600 -78.50782 5557 ft 164 kts 79°
2026-05-08 16:37 43.93792 -78.49225 5554 ft 164 kts 79°
2026-05-08 16:37 43.93956 -78.47653 5543 ft 165 kts 80°
2026-05-08 16:37 43.94135 -78.46086 5546 ft 164 kts 77°
2026-05-08 16:38 43.94381 -78.44542 5533 ft 164 kts 74°
2026-05-08 16:38 43.94650 -78.43006 5526 ft 164 kts 75°
2026-05-08 16:38 43.94903 -78.41466 5530 ft 164 kts 74°
2026-05-08 16:38 43.95184 -78.39935 5526 ft 164 kts 72°
2026-05-08 16:39 43.95493 -78.38439 5527 ft 163 kts 71°
2026-05-08 16:39 43.95844 -78.36941 5522 ft 163 kts 69°
2026-05-08 16:39 43.96233 -78.35462 5521 ft 163 kts 67°
2026-05-08 16:39 43.96615 -78.33975 5506 ft 164 kts 68°
2026-05-08 16:40 43.96992 -78.32489 5523 ft 163 kts 68°
2026-05-08 16:40 43.97374 -78.31030 5471 ft 162 kts 66°
2026-05-08 16:40 43.97772 -78.29560 5425 ft 162 kts 68°
2026-05-08 16:40 43.98064 -78.28047 5423 ft 161 kts 76°
2026-05-08 16:41 43.98288 -78.26537 5440 ft 161 kts 77°
2026-05-08 16:41 43.98485 -78.25015 5464 ft 159 kts 78°
2026-05-08 16:41 43.98643 -78.23526 5546 ft 155 kts 81°
2026-05-08 16:42 43.98894 -78.20508 5561 ft 157 kts 82°
2026-05-08 16:42 43.99026 -78.19008 5603 ft 157 kts 81°
2026-05-08 16:42 43.99179 -78.17501 5604 ft 158 kts 80°
2026-05-08 16:42 43.99327 -78.15991 5616 ft 158 kts 81°
2026-05-08 16:43 43.99431 -78.14462 5604 ft 160 kts 84°
2026-05-08 16:43 43.99469 -78.12920 5594 ft 161 kts 88°
2026-05-08 16:43 43.99502 -78.11338 5516 ft 165 kts 85°
2026-05-08 16:43 43.99591 -78.09766 5525 ft 163 kts 83°
2026-05-08 16:44 43.99693 -78.08208 5519 ft 162 kts 83°
2026-05-08 16:44 43.99828 -78.06656 5495 ft 162 kts 79°
2026-05-08 16:44 44.00022 -78.05115 5490 ft 162 kts 78°
2026-05-08 16:44 44.00216 -78.03577 5476 ft 162 kts 78°
2026-05-08 16:45 44.00408 -78.02040 5459 ft 162 kts 78°
2026-05-08 16:45 44.00601 -78.00499 5436 ft 162 kts 78°
2026-05-08 16:45 44.00811 -77.98968 5426 ft 161 kts 76°
2026-05-08 16:45 44.01040 -77.97445 5424 ft 160 kts 76°
2026-05-08 16:46 44.01270 -77.95957 5494 ft 156 kts 76°
2026-05-08 16:46 44.01497 -77.94483 5527 ft 156 kts 75°
2026-05-08 16:46 44.01749 -77.93023 5565 ft 156 kts 73°
2026-05-08 16:46 44.02017 -77.91562 5578 ft 156 kts 73°
2026-05-08 16:47 44.02298 -77.90096 5568 ft 158 kts 72°
2026-05-08 16:47 44.02591 -77.88613 5562 ft 159 kts 72°
2026-05-08 16:47 44.02944 -77.87196 5595 ft 157 kts 63°
2026-05-08 16:47 44.03399 -77.85791 5594 ft 158 kts 63°
2026-05-08 16:48 44.03835 -77.84412 5591 ft 158 kts 65°
2026-05-08 16:48 44.04211 -77.82969 5582 ft 159 kts 69°
2026-05-08 16:48 44.04552 -77.81489 5535 ft 162 kts 70°
2026-05-08 16:48 44.04898 -77.80002 5533 ft 161 kts 70°
2026-05-08 16:49 44.05222 -77.78509 5514 ft 161 kts 71°
2026-05-08 16:49 44.05535 -77.77009 5495 ft 162 kts 72°
2026-05-08 16:49 44.05832 -77.75503 5479 ft 161 kts 74°
2026-05-08 16:49 44.06046 -77.73969 5464 ft 162 kts 78°
2026-05-08 16:50 44.06227 -77.72426 5455 ft 162 kts 79°
2026-05-08 16:50 44.06408 -77.70882 5442 ft 162 kts 79°
2026-05-08 16:50 44.06585 -77.69336 5417 ft 162 kts 79°
2026-05-08 16:50 44.06755 -77.67789 5412 ft 162 kts 78°
2026-05-08 16:51 44.06973 -77.66256 5403 ft 162 kts 76°
2026-05-08 16:51 44.07231 -77.64736 5387 ft 161 kts 74°
2026-05-08 16:51 44.07495 -77.63223 5377 ft 161 kts 77°
2026-05-08 16:51 44.07670 -77.61679 5361 ft 162 kts 80°
2026-05-08 16:52 44.07828 -77.60132 5360 ft 162 kts 81°
2026-05-08 16:52 44.07963 -77.58796 5344 ft 163 kts 77°
2026-05-08 16:52 44.08285 -77.57299 5340 ft 161 kts 66°
2026-05-08 16:52 44.08695 -77.55849 5321 ft 160 kts 69°
2026-05-08 16:53 44.09244 -77.52932 5502 ft 151 kts 72°
2026-05-08 16:53 44.09527 -77.51524 5560 ft 152 kts 72°
2026-05-08 16:53 44.09767 -77.50086 5573 ft 155 kts 78°
2026-05-08 16:54 44.09950 -77.48610 5617 ft 156 kts 78°
2026-05-08 16:54 44.10141 -77.47094 5566 ft 161 kts 77°
2026-05-08 16:54 44.10361 -77.45551 5500 ft 164 kts 77°
2026-05-08 16:54 44.10587 -77.44014 5433 ft 165 kts 76°
2026-05-08 16:55 44.10829 -77.42460 5450 ft 162 kts 76°
2026-05-08 16:55 44.11053 -77.40939 5498 ft 160 kts 76°
2026-05-08 16:55 44.11274 -77.39428 5516 ft 159 kts 77°
2026-05-08 16:55 44.11497 -77.37913 5524 ft 160 kts 76°
2026-05-08 16:56 44.11727 -77.36396 5530 ft 161 kts 76°
2026-05-08 16:56 44.11978 -77.34878 5524 ft 161 kts 74°
2026-05-08 16:56 44.12213 -77.33356 5524 ft 161 kts 77°
2026-05-08 16:56 44.12425 -77.31823 5515 ft 162 kts 77°
2026-05-08 16:57 44.12656 -77.30293 5519 ft 161 kts 75°
2026-05-08 16:57 44.12906 -77.28772 5513 ft 161 kts 75°
2026-05-08 16:57 44.13146 -77.27246 5509 ft 161 kts 76°
2026-05-08 16:57 44.13382 -77.25720 5509 ft 161 kts 76°
2026-05-08 16:58 44.13619 -77.24196 5504 ft 161 kts 76°
2026-05-08 16:58 44.13868 -77.22674 5504 ft 161 kts 75°
2026-05-08 16:58 44.14134 -77.21162 5503 ft 161 kts 74°
2026-05-08 16:58 44.14376 -77.19639 5495 ft 161 kts 77°
2026-05-08 16:59 44.14578 -77.18102 5495 ft 161 kts 79°
2026-05-08 16:59 44.14773 -77.16565 5501 ft 161 kts 77°
2026-05-08 16:59 44.15011 -77.15040 5509 ft 161 kts 76°
2026-05-08 16:59 44.15219 -77.13503 5512 ft 161 kts 79°
2026-05-08 17:00 44.15378 -77.11957 5519 ft 162 kts 80°
2026-05-08 17:00 44.15554 -77.10410 5526 ft 161 kts 78°
2026-05-08 17:00 44.15763 -77.08874 5524 ft 162 kts 77°
2026-05-08 17:00 44.15964 -77.07332 5518 ft 162 kts 78°
2026-05-08 17:01 44.16171 -77.05797 5527 ft 161 kts 77°
2026-05-08 17:01 44.16366 -77.04255 5519 ft 162 kts 79°
2026-05-08 17:01 44.16555 -77.02712 5531 ft 162 kts 77°
2026-05-08 17:01 44.16793 -77.01181 5534 ft 162 kts 75°
2026-05-08 17:02 44.17021 -76.99642 5531 ft 162 kts 78°
2026-05-08 17:02 44.17193 -76.98089 5527 ft 163 kts 79°
2026-05-08 17:02 44.17381 -76.96535 5522 ft 163 kts 78°
2026-05-08 17:02 44.17611 -76.94992 5517 ft 163 kts 75°
2026-05-08 17:03 44.17859 -76.93461 5528 ft 162 kts 76°
2026-05-08 17:03 44.18095 -76.91926 5534 ft 162 kts 76°
2026-05-08 17:03 44.18323 -76.90407 5538 ft 162 kts 77°
2026-05-08 17:03 44.18548 -76.88868 5545 ft 162 kts 76°
2026-05-08 17:04 44.18784 -76.87332 5551 ft 162 kts 75°
2026-05-08 17:04 44.19058 -76.85809 5559 ft 162 kts 72°
2026-05-08 17:04 44.19365 -76.84296 5573 ft 162 kts 72°
2026-05-08 17:04 44.19660 -76.82782 5572 ft 162 kts 73°
2026-05-08 17:05 44.19911 -76.81248 5579 ft 163 kts 76°
2026-05-08 17:05 44.20151 -76.79729 5536 ft 158 kts 75°
2026-05-08 17:05 44.20387 -76.78211 5301 ft 162 kts 76°
2026-05-08 17:05 44.20629 -76.76685 5032 ft 159 kts 75°
2026-05-08 17:06 44.20889 -76.75193 4694 ft 158 kts 74°
2026-05-08 17:06 44.21170 -76.73707 4333 ft 159 kts 73°
2026-05-08 17:06 44.21482 -76.72247 4004 ft 156 kts 72°
2026-05-08 17:06 44.21690 -76.70758 3657 ft 157 kts 81°
2026-05-08 17:07 44.21821 -76.69244 3286 ft 157 kts 82°
2026-05-08 17:07 44.21958 -76.67729 2922 ft 156 kts 81°
2026-05-08 17:07 44.22098 -76.66215 2538 ft 159 kts 82°
2026-05-08 17:07 44.22248 -76.64700 2234 ft 157 kts 83°
2026-05-08 17:08 44.22382 -76.63182 1853 ft 159 kts 86°
2026-05-08 17:08 44.22530 -76.61654 1384 ft 160 kts 84°
2026-05-08 17:08 44.22733 -76.60198 1262 ft 139 kts 86°
2026-05-08 17:08 44.22873 -76.58972 1253 ft 124 kts 88°
2026-05-08 17:09 44.23181 -76.57859 1254 ft 128 kts 51°
2026-05-08 17:09 44.23985 -76.57359 1297 ft 132 kts
2026-05-08 17:09 44.24852 -76.57418 1395 ft 115 kts 354°
2026-05-08 17:09 44.25632 -76.57514 1377 ft 112 kts 351°
2026-05-08 17:10 44.26365 -76.57808 1354 ft 110 kts 314°
2026-05-08 17:10 44.26599 -76.58719 1265 ft 97 kts 257°
2026-05-08 17:10 44.26454 -76.59589 1126 ft 88 kts 243°
2026-05-08 17:10 44.26317 -76.60089 1077 ft 81 kts 237°
2026-05-08 17:11 44.25935 -76.60601 941 ft 80 kts 186°
2026-05-08 17:11 44.25395 -76.60543 790 ft 74 kts 175°
2026-05-08 17:11 44.24919 -76.60483 638 ft 64 kts 179°
2026-05-08 17:11 44.24450 -76.60435 546 ft 68 kts 178°
2026-05-08 17:12 44.24001 -76.60390 453 ft 63 kts 175°
2026-05-08 17:12 44.23562 -76.60343 381 ft 64 kts 178°
2026-05-08 17:12 44.23110 -76.60300 317 ft 64 kts 177°
2026-05-08 17:12 44.22763 -76.60268 298 ft 36 kts 177°
2026-05-08 17:13 44.22600 -76.60251 299 ft 11 kts 173°
2026-05-08 17:13 44.22559 -76.60238 299 ft 5 kts 96°
2026-05-08 17:13 44.22629 -76.60259 299 ft 12 kts 354°
2026-05-08 17:13 44.22676 -76.60200 298 ft 15 kts 107°
2026-05-08 17:14 44.22642 -76.60084 299 ft 9 kts 112°
2026-05-08 17:14 44.22638 -76.60069 299 ft 0 kts 109°
2026-05-08 17:14 44.22637 -76.60065 299 ft 3 kts 109°
2026-05-08 17:14 44.22620 -76.60000 299 ft 9 kts 111°
2026-05-08 17:15 44.22593 -76.59908 299 ft 11 kts 111°
2026-05-08 17:15 44.22564 -76.59798 301 ft 13 kts 110°
2026-05-08 17:15 44.22532 -76.59683 299 ft 10 kts 109°
2026-05-08 17:15 44.22513 -76.59611 302 ft 10 kts 111°
2026-05-08 17:16 44.22490 -76.59529 299 ft 7 kts 110°
2026-05-08 17:16 44.22468 -76.59447 299 ft 10 kts 110°
2026-05-08 17:16 44.22419 -76.59394 299 ft 14 kts 175°
2026-05-08 17:16 44.22321 -76.59379 300 ft 12 kts 171°
2026-05-08 17:17 44.22258 -76.59366 300 ft 7 kts 172°
2026-05-08 17:17 44.22208 -76.59357 299 ft 7 kts 173°
2026-05-08 17:17 44.22174 -76.59389 299 ft 9 kts 236°
2026-05-08 17:17 44.22134 -76.59432 300 ft 5 kts 154°
2026-05-08 17:18 44.22106 -76.59409 299 ft 4 kts 100°
2026-05-08 17:18 44.22117 -76.59401 299 ft 0 kts 323°